Regional Weather Roundup
Issued by NWS Goodland, KS

Home | Current Version | Previous Version | Graphics & Text | Print | Product List | Glossary On
Versions: 1 2 3 4 5 6 7 8 9 10 11 12 13 14 15 16 17 18 19 20 21 22 23 24 25 26 27 28 29 30 31 32 33 34 35 36 37 38 39 40 41 42 43 44 45 46 47 48 49 50
184
ASUS43 KGLD 182108
RWRGLD

GOODLAND FORECAST AREA HOURLY WEATHER ROUNDUP
NATIONAL WEATHER SERVICE GOODLAND KS
300 PM MDT WED OCT 18 2017

...OFFICIAL OBSERVATIONS...

CITY           SKY/WX    TMP DP  RH WIND       PRES   REMARKS
GOODLAND KS    SUNNY     82  20  10 N10       30.04S
HILL CITY KS   CLOUDY    82  31  15 N8        29.98S
IMPERIAL NEB   SUNNY     78  22  12 NE13      30.05S
MCCOOK NEB     SUNNY     78  32  18 NE16      30.01R
AKRON CO       SUNNY     77  14   9 NW8       30.10F
BURLINGTON CO  LGT RAIN  82  16   8 N13G18    30.07S
LIMON CO       SUNNY     76  13   9 E6        30.13F
$$

...UNOFFICIAL OBSERVATIONS...

CITY           SKY/WX    TMP DP  RH WIND       PRES   REMARKS
LENORA KS        N/A     77  32  19 MISG        N/A
NORTON KS      SUNNY     79  18  10 N13G21    29.98S
SHARON SPRINGS   N/A     84  24  11 CALM        N/A
TRENTON NEB      N/A     77  32  19 N6          N/A
KIT CARSON CO    N/A     82  24  12 MISG        N/A
YUMA CO        FAIR      75  19  12 NW7       30.07F
$$




USA.gov is the U.S. government's official web portal to all federal, state and local government web resources and services.